Weather in İvrindi

Turkey     39°34′48″N   27°29′10″E
temp.,
°C
wind,
m/s
gust,
m/s
humid.,
%
clouds,
%
prec.,
mm/h
press.,
hPa
HPBL,
m
24 january, mon
mon2400:00−10wnw118282 0.0 102510
03:00−11wsw018598 0.0 102510
06:00−12nw119096 0.0 102515
09:00−12ne129623 0.0 102628
12:00−5ne259099 0.0 1026283
15:00−2ne6983100 0.1 1025911
18:00−4nne61491100 0.1 1026795
21:00−5n41392100 0.1 1027541
25 january, tue
tue2500:00−3nne61496100 0.2 1027876
03:00−3nne6139799 0.9 10271013
06:00−4nne71597100 0.9 10261077
09:00−5n61394100 1.6 1027771
12:00−3nne71291100 0.3 10261155
15:00−2nne81291100 0.8 10241136
18:00−4nne61292100 0.3 1024904
21:00−9n359589 0.4 1026136
26 january, wed
wed2600:00−9nnw359559 0.0 1025104
03:00−9nw249875 0.1 1025100
06:00−8nw289771 0.1 1025234
09:00−10nw239744 0.2 102646
12:00−3n37815 0.0 1025609
15:00−2nne46765 0.0 1023623
18:00−6nne12895 0.0 102414
21:00−10nw11885 0.0 102710
27 january, thu
thu2700:00−11nw11855 0.0 102711
03:00−11nw11855 0.0 102811
06:00−12nw118539 0.0 102911
09:00−7nne118489 0.0 103045
12:00−3ne239033 0.0 1029249
15:00−1nne359151 0.0 1028474
18:00−3nne229241 0.0 102852
21:00−8w11965 0.0 102910
28 january, fri
fri2800:00−9sw019520 0.0 102910
03:00−9s119218 0.0 102910
06:00−9s118913 0.0 102810
09:00−8s11865 0.0 102910
12:000sse22765 0.0 1027188
15:00+2sse12875 0.0 1025228
18:00−1sse11885 0.0 102510
21:00−4ssw22845 0.0 102610